| time (UTC) | temp F | wind direction | speed MPH | gust MPH | rain 1hr in | rain 24hr in | rain mn in | humidity % | barometer mb |
| 20260903164145 | 66 | 226 | 9.0 | 20.0 | 0.00 | 0.02 | 0.02 | 80 | 1011.4 |
| 20260903162644 | 67 | 203 | 10.0 | 22.0 | 0.00 | 0.02 | 0.02 | 77 | 1011.2 |
| 20260903161644 | 67 | 223 | 9.0 | 21.0 | 0.00 | 0.02 | 0.02 | 77 | 1011.5 |
| 20260903161145 | 67 | 214 | 11.0 | 22.0 | 0.00 | 0.02 | 0.02 | 76 | 1011.4 |
| 20260903160645 | 67 | 234 | 8.0 | 22.0 | 0.00 | 0.02 | 0.02 | 76 | 1011.5 |
| 20260903154645 | 68 | 231 | 13.0 | 28.0 | 0.00 | 0.02 | 0.02 | 75 | 1011.8 |
| 20260903154144 | 68 | 220 | 12.0 | 28.0 | 0.00 | 0.02 | 0.02 | 76 | 1011.8 |
| 20260903153644 | 68 | 199 | 8.0 | 18.0 | 0.00 | 0.02 | 0.02 | 74 | 1011.7 |
| 20260903153144 | 68 | 244 | 12.0 | 24.0 | 0.00 | 0.02 | 0.02 | 74 | 1011.8 |
| 20260903152644 | 68 | 228 | 12.0 | 24.0 | 0.00 | 0.02 | 0.02 | 74 | 1011.9 |
| 20260903152144 | 69 | 202 | 11.0 | 21.0 | 0.00 | 0.02 | 0.02 | 73 | 1011.8 |
| 20260903151644 | 69 | 188 | 10.0 | 24.0 | 0.00 | 0.02 | 0.02 | 72 | 1011.9 |
| 20260903151144 | 69 | 209 | 14.0 | 24.0 | 0.00 | 0.02 | 0.02 | 71 | 1012.0 |
| 20260903150132 | 69 | 217 | 10.0 | 21.0 | 0.00 | 0.02 | 0.02 | 70 | 1011.9 |
| 20260903145632 | 70 | 257 | 11.0 | 20.0 | 0.00 | 0.02 | 0.02 | 70 | 1011.9 |
| 20260903145105 | 70 | 272 | 11.0 | 20.0 | 0.00 | 0.02 | 0.02 | 69 | 1012.1 |
| 20260903144606 | 70 | 271 | 9.0 | 16.0 | 0.00 | 0.02 | 0.02 | 69 | 1011.9 |
| 20260903143042 | 70 | 265 | 7.0 | 19.0 | 0.00 | 0.03 | 0.02 | 69 | 1012.0 |
| 20260903142545 | 69 | 231 | 10.0 | 19.0 | 0.00 | 0.03 | 0.02 | 69 | 1012.0 |
| 20260903142043 | 69 | 219 | 8.0 | 23.0 | 0.00 | 0.03 | 0.02 | 68 | 1011.9 |
| 20260903141542 | 69 | 244 | 13.0 | 23.0 | 0.00 | 0.03 | 0.02 | 68 | 1011.8 |
| 20260903141047 | 69 | 223 | 11.0 | 22.0 | 0.00 | 0.03 | 0.02 | 70 | 1011.7 |
| 20260903140541 | 69 | 212 | 10.0 | 22.0 | 0.00 | 0.03 | 0.02 | 69 | 1011.6 |
| 20260903140039 | 69 | 200 | 12.0 | 24.0 | 0.00 | 0.03 | 0.02 | 69 | 1011.7 |
| 20260903135537 | 69 | 233 | 15.0 | 24.0 | 0.00 | 0.03 | 0.02 | 69 | 1011.9 |
| 20260903135008 | 68 | 202 | 9.0 | 23.0 | 0.00 | 0.03 | 0.02 | 69 | 1011.8 |
| 20260903134509 | 68 | 296 | 11.0 | 23.0 | 0.00 | 0.03 | 0.02 | 69 | 1011.7 |
| 20260903133948 | 69 | 217 | 16.0 | 23.0 | 0.00 | 0.03 | 0.02 | 69 | 1011.6 |
| 20260903133442 | 69 | 224 | 16.0 | 20.0 | 0.00 | 0.03 | 0.02 | 70 | 1011.7 |
| 20260903132944 | 68 | 257 | 8.0 | 20.0 | 0.00 | 0.03 | 0.02 | 70 | 1011.9 |
| 20260903132448 | 67 | 257 | 13.0 | 19.0 | 0.00 | 0.03 | 0.02 | 70 | 1012.1 |
| 20260903131943 | 68 | 226 | 6.0 | 26.0 | 0.00 | 0.03 | 0.02 | 68 | 1012.1 |
| 20260903131442 | 68 | 262 | 11.0 | 26.0 | 0.00 | 0.04 | 0.02 | 68 | 1011.9 |
| 20260903130933 | 68 | 234 | 10.0 | 21.0 | 0.00 | 0.04 | 0.02 | 68 | 1012.0 |
| 20260903130432 | 68 | 206 | 10.0 | 22.0 | 0.00 | 0.05 | 0.02 | 68 | 1011.9 |
| 20260903125934 | 68 | 238 | 14.0 | 18.0 | 0.00 | 0.06 | 0.02 | 67 | 1011.9 |
| 20260903125416 | 68 | 247 | 9.0 | 25.0 | 0.00 | 0.06 | 0.02 | 67 | 1011.8 |
| 20260903124916 | 68 | 226 | 11.0 | 25.0 | 0.00 | 0.06 | 0.02 | 67 | 1011.7 |
| 20260903124408 | 69 | 295 | 11.0 | 22.0 | 0.00 | 0.06 | 0.02 | 67 | 1011.6 |
| 20260903123906 | 69 | 275 | 10.0 | 22.0 | 0.00 | 0.06 | 0.02 | 75 | 1011.6 |
| 20260903123405 | 68 | 252 | 11.0 | 20.0 | 0.00 | 0.07 | 0.02 | 75 | 1011.6 |
| 20260903122405 | 68 | 228 | 11.0 | 25.0 | 0.00 | 0.07 | 0.02 | 72 | 1011.9 |
| 20260903121904 | 68 | 209 | 12.0 | 19.0 | 0.00 | 0.07 | 0.02 | 72 | 1011.9 |
| 20260903121405 | 68 | 245 | 10.0 | 21.0 | 0.00 | 0.07 | 0.02 | 72 | 1011.9 |
| 20260903120904 | 68 | 216 | 14.0 | 25.0 | 0.00 | 0.07 | 0.02 | 72 | 1012.0 |
| 20260903120403 | 68 | 237 | 12.0 | 25.0 | 0.00 | 0.07 | 0.02 | 72 | 1011.9 |
| 20260903115842 | 68 | 179 | 10.0 | 20.0 | 0.00 | 0.07 | 0.02 | 72 | 1011.8 |
| 20260903114833 | 69 | 231 | 7.0 | 18.0 | 0.00 | 0.07 | 0.02 | 72 | 1011.9 |
| 20260903113807 | 70 | 228 | 14.0 | 22.0 | 0.00 | 0.07 | 0.02 | 75 | 1011.8 |
| 20260903113250 | 70 | 214 | 11.0 | 21.0 | 0.00 | 0.07 | 0.02 | 75 | 1011.7 |
| 20260903112743 | 69 | 259 | 14.0 | 19.0 | 0.00 | 0.07 | 0.02 | 75 | 1011.7 |
| 20260903112244 | 69 | 251 | 10.0 | 17.0 | 0.00 | 0.07 | 0.02 | 77 | 1011.6 |
| 20260903111731 | 67 | 231 | 10.0 | 17.0 | 0.00 | 0.07 | 0.02 | 80 | 1011.4 |
| 20260903111234 | 67 | 303 | 5.0 | 12.0 | 0.00 | 0.07 | 0.02 | 82 | 1011.7 |
| 20260903110734 | 67 | 261 | 5.0 | 11.0 | 0.00 | 0.07 | 0.02 | 82 | 1011.6 |
| 20260903110231 | 66 | 233 | 5.0 | 11.0 | 0.00 | 0.07 | 0.02 | 82 | 1011.6 |
| 20260903105733 | 65 | 258 | 6.0 | 15.0 | 0.00 | 0.07 | 0.02 | 81 | 1011.8 |
| 20260903103706 | 65 | 286 | 6.0 | 14.0 | 0.00 | 0.07 | 0.02 | 81 | 1011.6 |
| 20260903103207 | 66 | 259 | 9.0 | 14.0 | 0.00 | 0.07 | 0.02 | 80 | 1011.7 |
| 20260903102203 | 66 | 216 | 6.0 | 15.0 | 0.00 | 0.07 | 0.02 | 80 | 1011.6 |
| 20260903101703 | 66 | 223 | 9.0 | 17.0 | 0.00 | 0.07 | 0.02 | 80 | 1011.6 |
| 20260903101155 | 67 | 235 | 9.0 | 17.0 | 0.00 | 0.07 | 0.02 | 80 | 1011.7 |
| 20260903100146 | 66 | 281 | 7.0 | 17.0 | 0.00 | 0.07 | 0.02 | 81 | 1011.4 |
| 20260903095642 | 66 | 254 | 9.0 | 18.0 | 0.00 | 0.07 | 0.02 | 80 | 1011.3 |
| 20260903095143 | 66 | 234 | 9.0 | 18.0 | 0.00 | 0.07 | 0.02 | 82 | 1011.3 |
| 20260903094644 | 66 | 221 | 7.0 | 16.0 | 0.00 | 0.07 | 0.02 | 82 | 1011.4 |
| 20260903094142 | 66 | 219 | 7.0 | 16.0 | 0.00 | 0.07 | 0.02 | 83 | 1011.5 |
| 20260903093648 | 66 | 200 | 10.0 | 16.0 | 0.00 | 0.07 | 0.02 | 85 | 1011.5 |
| 20260903093143 | 66 | 223 | 10.0 | 16.0 | 0.00 | 0.07 | 0.02 | 85 | 1011.4 |
| 20260903091643 | 65 | 195 | 9.0 | 16.0 | 0.00 | 0.07 | 0.02 | 88 | 1011.5 |
| 20260903091145 | 65 | 223 | 3.0 | 15.0 | 0.01 | 0.07 | 0.02 | 88 | 1011.2 |
| 20260903090644 | 64 | 269 | 7.0 | 15.0 | 0.02 | 0.07 | 0.02 | 89 | 1011.4 |
| 20260903090141 | 64 | 240 | 6.0 | 13.0 | 0.02 | 0.07 | 0.02 | 90 | 1011.3 |
| 20260903085643 | 64 | 243 | 8.0 | 12.0 | 0.02 | 0.06 | 0.02 | 91 | 1011.2 |
| 20260903085144 | 63 | 259 | 8.0 | 13.0 | 0.02 | 0.06 | 0.02 | 93 | 1011.3 |
| 20260903084643 | 63 | 240 | 7.0 | 13.0 | 0.02 | 0.06 | 0.02 | 93 | 1010.9 |
| 20260903084147 | 63 | 254 | 6.0 | 13.0 | 0.02 | 0.06 | 0.02 | 93 | 1010.9 |
| 20260903083642 | 63 | 233 | 7.0 | 13.0 | 0.02 | 0.06 | 0.02 | 94 | 1010.9 |
| 20260903083143 | 62 | 227 | 5.0 | 13.0 | 0.02 | 0.06 | 0.02 | 92 | 1011.0 |
| 20260903082142 | 63 | 227 | 6.0 | 13.0 | 0.02 | 0.06 | 0.02 | 92 | 1011.1 |
| 20260903081643 | 63 | 209 | 4.0 | 12.0 | 0.02 | 0.06 | 0.02 | 91 | 1011.0 |
| 20260903081144 | 63 | 206 | 8.0 | 12.0 | 0.01 | 0.06 | 0.00 | 91 | 1011.1 |
| 20260903080641 | 63 | 307 | 4.0 | 9.0 | 0.00 | 0.06 | 0.00 | 91 | 1011.1 |
| 20260903080145 | 63 | 272 | 6.0 | 12.0 | 0.00 | 0.06 | 0.00 | 91 | 1010.9 |
| 20260903075143 | 63 | 233 | 4.0 | 13.0 | 0.00 | 0.06 | 0.00 | 92 | 1010.8 |
| 20260903074644 | 63 | 227 | 6.0 | 13.0 | 0.00 | 0.06 | 0.00 | 92 | 1011.0 |
| 20260903074144 | 63 | 244 | 6.0 | 13.0 | 0.00 | 0.06 | 0.00 | 92 | 1010.9 |
| 20260903073644 | 63 | 243 | 3.0 | 8.0 | 0.00 | 0.06 | 0.00 | 92 | 1010.8 |
| 20260903072645 | 63 | 223 | 5.0 | 13.0 | 0.00 | 0.06 | 0.00 | 92 | 1010.5 |
| 20260903072147 | 63 | 252 | 4.0 | 13.0 | 0.00 | 0.06 | 0.00 | 92 | 1010.4 |
| 20260903071143 | 63 | 189 | 4.0 | 15.0 | 0.00 | 0.06 | 0.00 | 92 | 1010.4 |
| 20260903070644 | 63 | 227 | 8.0 | 16.0 | 0.00 | 0.06 | 0.00 | 92 | 1010.4 |
| 20260903070144 | 63 | 203 | 6.0 | 16.0 | 0.00 | 0.06 | 0.00 | 92 | 1010.4 |
| 20260903065643 | 63 | 228 | 10.0 | 16.0 | 0.00 | 0.06 | 0.00 | 92 | 1010.4 |
| 20260903065143 | 63 | 186 | 10.0 | 16.0 | 0.00 | 0.06 | 0.00 | 92 | 1010.3 |
| 20260903064644 | 63 | 247 | 6.0 | 17.0 | 0.00 | 0.06 | 0.00 | 92 | 1010.4 |
| 20260903064142 | 63 | 219 | 10.0 | 17.0 | 0.00 | 0.06 | 0.00 | 92 | 1010.3 |
| 20260903063647 | 63 | 190 | 5.0 | 15.0 | 0.00 | 0.06 | 0.00 | 91 | 1010.0 |
| 20260903063145 | 63 | 210 | 11.0 | 16.0 | 0.00 | 0.06 | 0.00 | 91 | 1010.1 |
| 20260903062644 | 63 | 283 | 10.0 | 16.0 | 0.00 | 0.06 | 0.00 | 91 | 1009.9 |
| 20260903062144 | 63 | 257 | 7.0 | 14.0 | 0.00 | 0.06 | 0.00 | 91 | 1009.9 |
| 20260903061643 | 63 | 254 | 8.0 | 17.0 | 0.00 | 0.06 | 0.00 | 90 | 1009.8 |
| 20260903061144 | 63 | 200 | 11.0 | 19.0 | 0.00 | 0.06 | 0.00 | 90 | 1009.8 |
| 20260903060643 | 63 | 224 | 10.0 | 19.0 | 0.00 | 0.06 | 0.00 | 90 | 1009.7 |
| 20260903060143 | 63 | 199 | 6.0 | 15.0 | 0.00 | 0.06 | 0.00 | 91 | 1009.7 |
| 20260903055645 | 63 | 228 | 9.0 | 17.0 | 0.00 | 0.06 | 0.00 | 90 | 1009.6 |
| 20260903054144 | 62 | 241 | 6.0 | 14.0 | 0.00 | 0.06 | 0.00 | 92 | 1009.6 |
| 20260903053645 | 62 | 216 | 8.0 | 14.0 | 0.00 | 0.06 | 0.00 | 92 | 1009.6 |
| 20260903052645 | 62 | 245 | 6.0 | 11.0 | 0.00 | 0.06 | 0.00 | 92 | 1009.5 |
| 20260903052143 | 62 | 245 | 4.0 | 12.0 | 0.00 | 0.06 | 0.00 | 92 | 1009.5 |
| 20260903051643 | 62 | 204 | 7.0 | 12.0 | 0.00 | 0.06 | 0.00 | 92 | 1009.6 |
| 20260903051147 | 62 | 223 | 4.0 | 12.0 | 0.00 | 0.06 | 0.00 | 92 | 1009.7 |
| 20260903050142 | 62 | 203 | 4.0 | 11.0 | 0.00 | 0.06 | 0.00 | 92 | 1009.7 |
| 20260903045643 | 62 | 204 | 4.0 | 11.0 | 0.00 | 0.06 | 0.00 | 92 | 1009.6 |
| 20260903045145 | 62 | 221 | 4.0 | 15.0 | 0.00 | 0.06 | 0.00 | 92 | 1009.6 |
| 20260903044143 | 62 | 228 | 8.0 | 18.0 | 0.00 | 0.06 | 0.00 | 92 | 1009.5 |
| 20260903043643 | 62 | 224 | 8.0 | 21.0 | 0.00 | 0.06 | 0.00 | 92 | 1009.4 |
| 20260903042633 | 62 | 207 | 9.0 | 20.0 | 0.00 | 0.06 | 0.00 | 92 | 1009.2 |
| 20260903042132 | 62 | 162 | 11.0 | 20.0 | 0.00 | 0.06 | 0.00 | 92 | 1009.1 |
| 20260903041606 | 63 | 210 | 6.0 | 14.0 | 0.00 | 0.06 | 0.00 | 92 | 1009.2 |
| 20260903041110 | 63 | 237 | 9.0 | 18.0 | 0.00 | 0.06 | 0.00 | 92 | 1009.1 |
| 20260903040611 | 63 | 234 | 9.0 | 18.0 | 0.00 | 0.06 | 0.00 | 92 | 1009.1 |
| 20260903040108 | 63 | 210 | 9.0 | 16.0 | 0.00 | 0.06 | 0.00 | 92 | 1009.1 |
| 20260903035604 | 63 | 241 | 8.0 | 18.0 | 0.00 | 0.06 | 0.00 | 93 | 1009.2 |
| 20260903034533 | 63 | 223 | 10.0 | 15.0 | 0.00 | 0.06 | 0.00 | 93 | 1009.1 |
| 20260903034032 | 63 | 240 | 7.0 | 15.0 | 0.00 | 0.06 | 0.00 | 93 | 1009.2 |
| 20260903033533 | 63 | 231 | 8.0 | 12.0 | 0.00 | 0.06 | 0.00 | 94 | 1009.1 |
| 20260903033030 | 63 | 213 | 7.0 | 13.0 | 0.00 | 0.06 | 0.00 | 94 | 1009.1 |
| 20260903032529 | 63 | 193 | 5.0 | 17.0 | 0.00 | 0.06 | 0.00 | 94 | 1009.1 |
| 20260903032023 | 63 | 220 | 7.0 | 17.0 | 0.00 | 0.06 | 0.00 | 94 | 1009.2 |
| 20260903031512 | 63 | 238 | 6.0 | 15.0 | 0.00 | 0.06 | 0.00 | 94 | 1009.0 |
| 20260903030507 | 64 | 188 | 5.0 | 12.0 | 0.00 | 0.06 | 0.00 | 93 | 1009.0 |
| 20260903030006 | 64 | 226 | 6.0 | 15.0 | 0.00 | 0.06 | 0.00 | 93 | 1008.9 |
| 20260903025505 | 64 | 196 | 9.0 | 15.0 | 0.00 | 0.06 | 0.00 | 93 | 1009.0 |
| 20260903024958 | 64 | 200 | 10.0 | 21.0 | 0.00 | 0.06 | 0.00 | 93 | 1009.0 |
| 20260903024445 | 64 | 219 | 9.0 | 21.0 | 0.00 | 0.06 | 0.00 | 93 | 1008.9 |
| 20260903023944 | 64 | 214 | 9.0 | 21.0 | 0.00 | 0.06 | 0.00 | 93 | 1009.0 |
| 20260903022942 | 64 | 223 | 9.0 | 18.0 | 0.00 | 0.06 | 0.00 | 93 | 1009.2 |
| 20260903022441 | 64 | 196 | 9.0 | 16.0 | 0.00 | 0.06 | 0.00 | 93 | 1009.1 |
| 20260903021939 | 64 | 169 | 8.0 | 17.0 | 0.00 | 0.06 | 0.00 | 93 | 1009.3 |
| 20260903020941 | 64 | 209 | 6.0 | 15.0 | 0.00 | 0.06 | 0.00 | 93 | 1009.2 |
| 20260903020440 | 64 | 217 | 9.0 | 15.0 | 0.00 | 0.06 | 0.00 | 93 | 1009.2 |
| 20260903015940 | 64 | 216 | 8.0 | 17.0 | 0.00 | 0.06 | 0.00 | 93 | 1009.3 |
| 20260903015439 | 64 | 199 | 10.0 | 17.0 | 0.00 | 0.06 | 0.00 | 93 | 1009.3 |
| 20260903014936 | 64 | 248 | 9.0 | 18.0 | 0.00 | 0.06 | 0.00 | 93 | 1009.3 |
| 20260903014433 | 64 | 238 | 10.0 | 18.0 | 0.00 | 0.06 | 0.00 | 93 | 1009.3 |
| 20260903013934 | 64 | 188 | 8.0 | 17.0 | 0.00 | 0.06 | 0.00 | 93 | 1009.3 |
| 20260903013412 | 64 | 226 | 6.0 | 14.0 | 0.00 | 0.06 | 0.00 | 93 | 1009.3 |
| 20260903012908 | 64 | 240 | 7.0 | 16.0 | 0.00 | 0.06 | 0.00 | 93 | 1009.2 |
| 20260903012405 | 64 | 168 | 10.0 | 18.0 | 0.00 | 0.06 | 0.00 | 93 | 1009.2 |
| 20260903011906 | 64 | 207 | 6.0 | 19.0 | 0.00 | 0.06 | 0.00 | 94 | 1009.2 |
| 20260903011405 | 64 | 207 | 7.0 | 19.0 | 0.00 | 0.06 | 0.00 | 94 | 1009.2 |
| 20260903010906 | 64 | 182 | 10.0 | 15.0 | 0.00 | 0.06 | 0.00 | 94 | 1009.3 |
| 20260903010404 | 64 | 247 | 11.0 | 18.0 | 0.00 | 0.06 | 0.00 | 94 | 1009.2 |
| 20260903005904 | 64 | 178 | 11.0 | 18.0 | 0.00 | 0.06 | 0.00 | 94 | 1009.3 |
| 20260903005342 | 64 | 176 | 11.0 | 19.0 | 0.00 | 0.06 | 0.00 | 94 | 1009.2 |
| 20260903004840 | 64 | 234 | 7.0 | 19.0 | 0.00 | 0.06 | 0.00 | 94 | 1009.1 |
| 20260903004333 | 64 | 243 | 9.0 | 18.0 | 0.00 | 0.06 | 0.00 | 94 | 1009.2 |
| 20260903003834 | 64 | 189 | 9.0 | 18.0 | 0.00 | 0.06 | 0.00 | 94 | 1009.2 |
| 20260903003332 | 64 | 190 | 10.0 | 17.0 | 0.00 | 0.06 | 0.00 | 94 | 1009.4 |
| 20260903002831 | 64 | 203 | 9.0 | 17.0 | 0.00 | 0.06 | 0.00 | 94 | 1009.5 |
| 20260903002331 | 64 | 204 | 10.0 | 17.0 | 0.00 | 0.06 | 0.00 | 94 | 1009.4 |
| 20260903001834 | 64 | 217 | 11.0 | 17.0 | 0.00 | 0.06 | 0.00 | 94 | 1009.4 |
| 20260903000752 | 64 | 197 | 10.0 | 16.0 | 0.00 | 0.06 | 0.00 | 94 | 1009.5 |
| 20260903000243 | 64 | 192 | 9.0 | 22.0 | 0.00 | 0.06 | 0.00 | 94 | 1009.7 |
| 20260902235744 | 64 | 219 | 8.0 | 22.0 | 0.00 | 0.06 | 0.00 | 94 | 1009.7 |
| 20260902235244 | 64 | 210 | 9.0 | 20.0 | 0.00 | 0.06 | 0.00 | 94 | 1009.7 |
| 20260902234741 | 64 | 200 | 6.0 | 18.0 | 0.00 | 0.06 | 0.00 | 94 | 1009.5 |
| 20260902234240 | 64 | 223 | 9.0 | 21.0 | 0.00 | 0.07 | 0.00 | 93 | 1009.6 |
| 20260902233742 | 65 | 210 | 12.0 | 21.0 | 0.00 | 0.07 | 0.00 | 93 | 1009.7 |
| 20260902233247 | 65 | 230 | 7.0 | 25.0 | 0.00 | 0.07 | 0.00 | 93 | 1009.6 |
| 20260902232746 | 65 | 255 | 16.0 | 25.0 | 0.00 | 0.07 | 0.00 | 93 | 1009.7 |
| 20260902232241 | 64 | 243 | 13.0 | 24.0 | 0.00 | 0.07 | 0.00 | 93 | 1009.8 |
| 20260902231740 | 65 | 224 | 12.0 | 22.0 | 0.00 | 0.07 | 0.00 | 93 | 1009.8 |
| 20260902231242 | 64 | 226 | 8.0 | 20.0 | 0.00 | 0.07 | 0.00 | 93 | 1009.9 |
| 20260902230741 | 64 | 223 | 8.0 | 20.0 | 0.00 | 0.07 | 0.00 | 93 | 1009.8 |
| 20260902225740 | 64 | 219 | 12.0 | 25.0 | 0.00 | 0.07 | 0.07 | 93 | 1009.7 |
| 20260902225240 | 64 | 210 | 16.0 | 25.0 | 0.00 | 0.07 | 0.07 | 93 | 1009.7 |
| 20260902224741 | 64 | 199 | 6.0 | 15.0 | 0.00 | 0.07 | 0.07 | 93 | 1009.7 |
| 20260902223241 | 64 | 226 | 6.0 | 16.0 | 0.00 | 0.07 | 0.07 | 93 | 1009.8 |
| 20260902222743 | 64 | 180 | 8.0 | 16.0 | 0.00 | 0.07 | 0.07 | 93 | 1009.9 |
| 20260902222242 | 64 | 216 | 9.0 | 16.0 | 0.00 | 0.07 | 0.07 | 93 | 1009.9 |
| 20260902221243 | 64 | 186 | 6.0 | 14.0 | 0.00 | 0.07 | 0.07 | 93 | 1009.9 |
| 20260902220742 | 64 | 209 | 8.0 | 14.0 | 0.00 | 0.07 | 0.07 | 94 | 1009.9 |
| 20260902220241 | 64 | 197 | 7.0 | 14.0 | 0.00 | 0.07 | 0.07 | 94 | 1009.9 |
| 20260902215240 | 64 | 223 | 6.0 | 16.0 | 0.00 | 0.07 | 0.07 | 94 | 1010.0 |
| 20260902214741 | 64 | 173 | 7.0 | 16.0 | 0.00 | 0.07 | 0.07 | 94 | 1010.0 |
| 20260902214240 | 64 | 193 | 8.0 | 13.0 | 0.00 | 0.07 | 0.07 | 94 | 1010.0 |
| 20260902213741 | 64 | 226 | 7.0 | 13.0 | 0.00 | 0.07 | 0.07 | 94 | 1010.1 |
| 20260902213240 | 64 | 202 | 8.0 | 13.0 | 0.00 | 0.07 | 0.07 | 94 | 1010.1 |
| 20260902212741 | 64 | 165 | 9.0 | 13.0 | 0.00 | 0.07 | 0.07 | 95 | 1010.3 |
| 20260902212243 | 64 | 195 | 5.0 | 12.0 | 0.00 | 0.07 | 0.07 | 95 | 1010.4 |
| 20260902211742 | 63 | 214 | 8.0 | 13.0 | 0.00 | 0.07 | 0.07 | 95 | 1010.4 |
| 20260902211241 | 63 | 204 | 7.0 | 15.0 | 0.00 | 0.07 | 0.07 | 95 | 1010.4 |
| 20260902210741 | 63 | 203 | 8.0 | 15.0 | 0.00 | 0.07 | 0.07 | 95 | 1010.2 |
| 20260902210240 | 63 | 204 | 7.0 | 17.0 | 0.00 | 0.07 | 0.07 | 95 | 1010.3 |
| 20260902205742 | 63 | 203 | 10.0 | 17.0 | 0.00 | 0.07 | 0.07 | 95 | 1010.3 |
| 20260902205241 | 63 | 179 | 9.0 | 15.0 | 0.00 | 0.07 | 0.07 | 95 | 1010.2 |
| 20260902204744 | 63 | 192 | 10.0 | 17.0 | 0.00 | 0.07 | 0.07 | 95 | 1010.1 |
| 20260902204241 | 63 | 199 | 12.0 | 17.0 | 0.00 | 0.07 | 0.07 | 95 | 1010.2 |
| 20260902203741 | 63 | 182 | 10.0 | 16.0 | 0.00 | 0.07 | 0.07 | 95 | 1010.1 |
| 20260902203240 | 62 | 180 | 10.0 | 16.0 | 0.00 | 0.07 | 0.07 | 95 | 1010.2 |
| 20260902202740 | 62 | 175 | 7.0 | 16.0 | 0.00 | 0.07 | 0.07 | 95 | 1010.2 |
| 20260902202240 | 62 | 180 | 10.0 | 18.0 | 0.00 | 0.07 | 0.07 | 95 | 1010.2 |
| 20260902201745 | 62 | 210 | 11.0 | 18.0 | 0.00 | 0.07 | 0.07 | 95 | 1010.3 |
| 20260902201242 | 62 | 180 | 7.0 | 14.0 | 0.00 | 0.07 | 0.07 | 95 | 1010.4 |
| 20260902200737 | 0 | 192 | 10.0 | 16.0 | 0.00 | 0.07 | 0.07 | 1010.4 | |
| 20260902200205 | 60 | 183 | 10.0 | 16.0 | 0.00 | 0.07 | 0.07 | 95 | 1010.4 |
| 20260902195203 | 60 | 173 | 8.0 | 16.0 | 0.00 | 0.07 | 0.07 | 94 | 1010.5 |
| 20260902194705 | 60 | 175 | 7.0 | 17.0 | 0.00 | 0.07 | 0.07 | 94 | 1010.4 |
| 20260902194203 | 60 | 158 | 10.0 | 17.0 | 0.00 | 0.07 | 0.07 | 94 | 1010.5 |
| 20260902193705 | 60 | 159 | 6.0 | 17.0 | 0.00 | 0.07 | 0.07 | 94 | 1010.5 |
| 20260902193207 | 60 | 176 | 9.0 | 18.0 | 0.00 | 0.07 | 0.07 | 94 | 1010.4 |
| 20260902192656 | 60 | 175 | 7.0 | 18.0 | 0.00 | 0.07 | 0.07 | 94 | 1010.6 |
| 20260902192137 | 60 | 161 | 11.0 | 18.0 | 0.00 | 0.07 | 0.07 | 94 | 1010.6 |
| 20260902191637 | 60 | 171 | 8.0 | 14.0 | 0.00 | 0.07 | 0.07 | 94 | 1010.8 |
| 20260902191138 | 60 | 173 | 8.0 | 14.0 | 0.00 | 0.07 | 0.07 | 94 | 1010.8 |
| 20260902190640 | 60 | 179 | 8.0 | 16.0 | 0.00 | 0.07 | 0.07 | 93 | 1010.8 |
| 20260902190133 | 60 | 192 | 8.0 | 18.0 | 0.00 | 0.07 | 0.07 | 93 | 1010.8 |
| 20260902185632 | 60 | 164 | 11.0 | 18.0 | 0.00 | 0.07 | 0.07 | 93 | 1010.9 |
| 20260902185132 | 60 | 155 | 9.0 | 16.0 | 0.00 | 0.07 | 0.07 | 93 | 1010.9 |
| 20260902184632 | 60 | 223 | 9.0 | 16.0 | 0.00 | 0.07 | 0.07 | 93 | 1011.0 |
| 20260902184137 | 60 | 151 | 8.0 | 15.0 | 0.00 | 0.07 | 0.07 | 93 | 1010.9 |
| 20260902183606 | 60 | 166 | 8.0 | 16.0 | 0.00 | 0.07 | 0.07 | 93 | 1011.0 |
| 20260902183104 | 60 | 133 | 6.0 | 16.0 | 0.00 | 0.07 | 0.07 | 93 | 1011.0 |
| 20260902182547 | 60 | 199 | 6.0 | 13.0 | 0.00 | 0.07 | 0.07 | 93 | 1010.9 |
| 20260902182037 | 60 | 186 | 6.0 | 14.0 | 0.00 | 0.07 | 0.07 | 93 | 1011.0 |
| 20260902181538 | 60 | 189 | 10.0 | 14.0 | 0.00 | 0.07 | 0.07 | 93 | 1010.9 |
| 20260902181035 | 60 | 188 | 8.0 | 14.0 | 0.00 | 0.07 | 0.07 | 93 | 1011.1 |
| 20260902180538 | 60 | 185 | 5.0 | 16.0 | 0.00 | 0.07 | 0.07 | 92 | 1011.1 |
| 20260902175534 | 60 | 165 | 9.0 | 17.0 | 0.00 | 0.07 | 0.07 | 92 | 1010.9 |
| 20260902175035 | 60 | 179 | 8.0 | 15.0 | 0.00 | 0.07 | 0.07 | 92 | 1011.0 |
| 20260902174535 | 60 | 192 | 8.0 | 16.0 | 0.00 | 0.07 | 0.07 | 91 | 1010.9 |
| 20260902174039 | 60 | 158 | 10.0 | 18.0 | 0.00 | 0.07 | 0.07 | 91 | 1011.0 |
| 20260902173534 | 60 | 192 | 11.0 | 18.0 | 0.00 | 0.07 | 0.07 | 91 | 1011.0 |
| 20260902173037 | 60 | 212 | 12.0 | 19.0 | 0.00 | 0.07 | 0.07 | 91 | 1011.0 |
| 20260902172535 | 60 | 193 | 8.0 | 19.0 | 0.00 | 0.07 | 0.07 | 91 | 1010.9 |
| 20260902172035 | 60 | 183 | 9.0 | 17.0 | 0.00 | 0.07 | 0.07 | 91 | 1011.0 |
| 20260902171036 | 60 | 171 | 7.0 | 17.0 | 0.00 | 0.07 | 0.07 | 91 | 1011.3 |
| 20260902170536 | 60 | 159 | 9.0 | 17.0 | 0.00 | 0.07 | 0.07 | 91 | 1011.5 |
| 20260902165535 | 60 | 214 | 8.0 | 16.0 | 0.00 | 0.07 | 0.07 | 91 | 1011.7 |
| 20260902165035 | 60 | 193 | 10.0 | 16.0 | 0.00 | 0.07 | 0.07 | 91 | 1011.8 |
| 20260902164535 | 60 | 152 | 9.0 | 16.0 | 0.00 | 0.07 | 0.07 | 91 | 1011.8 |